User: anonymous   Login
Location: Unspecified
(0.0000°N, 0.0000°E)
Time: 07:13:09
(UTC+00:00)
Language:

RS-15 - Orbit

View from above orbital plane
View from above orbital plane
View from above satellite
View from above satellite

Ground track
Ground track

The orbit data is extracted from the following two-line orbital elements,

1 23439U 94085A   18348.19893507 -.00000068  00000-0 -71614-3 0  9991
2 23439  64.8190  57.7137 0151048 148.9865 299.6498 11.27568100987025
Epoch (UTC): 14 December 2018 04:46:27
Eccentricity: 0.0151048
inclination: 64.8190°
perigee height: 1895 km
apogee height: 2149 km
right ascension of ascending node: 57.7137°
argument of perigee: 148.9865°
revolutions per day: 11.27568100
mean anomaly at epoch: 299.6498°
orbit number at epoch: 98702

The dashed part of the orbit path shows where the satellite is in the earth's shadow,  

DLR